Regional Weather Roundup
Issued by NWS

Home | Current Version | Previous Version | Graphics & Text | Print | Product List | Glossary On
Versions: 1 2 3 4 5 6 7 8 9 10 11 12 13 14 15 16 17 18 19 20 21 22 23 24 25 26 27 28 29 30 31 32 33 34 35 36 37 38 39 40 41 42 43 44 45 46 47 48 49 50
000
ASUS43 KMKX 171420
RWRWI

WISCONSIN REGIONAL WEATHER ROUNDUP
NATIONAL WEATHER SERVICE MILWAUKEE/SULLIVAN WI
800 AM CST SUN DEC 17 2017

NOTE: "FAIR" INDICATES FEW OR NO CLOUDS BELOW 12,000 FEET WITH NO
SIGNIFICANT WEATHER AND/OR OBSTRUCTIONS TO VISIBILITY.

WIZ001-002-006>008-014>016-023>028-171500-
NORTHWEST WISCONSIN

CITY           SKY/WX    TMP DP  RH WIND       PRES   REMARKS
SUPERIOR ARPT  CLOUDY    22  17  83 CALM      30.12S
ASHLAND        CLOUDY    22  18  85 CALM      30.12F
HAYWARD        CLOUDY    23  20  88 CALM      30.09F FOG
SIREN          FOG       19  18  96 CALM      30.10S VSB 1/4
CUMBERLAND     FOG       23  21  93 SE3       30.08F VSB 3/4
RICE LAKE      FOG       24  24  99 CALM      30.10F VSB 3/4
CHETEK         CLOUDY    24  23  98 CALM      30.10S
LADYSMITH      CLOUDY    25  23  93 SE9       30.11F WCI  15
EAU CLAIRE     CLOUDY    25  24  96 E5        30.08F FOG     WCI  19
MENOMONIE      CLOUDY    26  25  98 E6        30.09F FOG     WCI  19
NEW RICHMOND   CLOUDY    24  23  98 SE3       30.09S FOG
OSCEOLA        FOG       23  23 100 CALM      30.13S VSB 3/4
$$

WIZ003>005-009-010-017-018-171500-
NORTH CENTRAL WISCONSIN

CITY           SKY/WX    TMP DP  RH WIND       PRES   REMARKS
MANITOWISH WTR CLOUDY    20  20 100 S5        30.08F FOG     WCI  14
ARBOR VITAE    CLOUDY    22  20  93 SE5       30.09S FOG     WCI  15
WOODRUFF       CLOUDY    22  20  93 SE5       30.09S FOG     WCI  15
RHINELANDER    CLOUDY    20  19  96 SE5       30.09F WCI  13
EAGLE RIVER    CLOUDY    19  18  99 S3        30.09F FOG
LAND O LAKES   CLOUDY    19  18  96 S3        30.10F FOG
PHILLIPS       CLOUDY    22  22 100 SE6       30.09S WCI  14
TOMAHAWK       CLOUDY    21  20  94 CALM      30.10F FOG
MEDFORD        CLOUDY    22  21  95 E6        30.08S FOG     WCI  15
MERRILL        CLOUDY    23  22  97 SE3       30.11F FOG
$$

WIZ029-030-035-036-043>047-171500-
CENTRAL WISCONSIN

CITY           SKY/WX    TMP DP  RH WIND       PRES   REMARKS
WAUSAU         CLOUDY    22  22 100 E6        30.09F FOG     WCI  14
MOSINEE        CLOUDY    23  21  93 E7        30.11F FOG     WCI  15
MARSHFIELD     CLOUDY    24  22  91 E8        30.07F WCI  15
STEVENS POINT  CLOUDY    22  22 100 E5        30.11F FOG     WCI  16
WAUPACA        CLOUDY    27  23  87 NE5       30.14S WCI  21
WAUTOMA        NOT AVBL
WISC RAPIDS    CLOUDY    25  21  85 E7        30.11F WCI  17
CAMP DOUGLAS   CLOUDY    27  27 100 CALM      30.11S FOG
$$

WIZ011>013-019>022-031-037>040-048>050-171500-
NORTHEAST WISCONSIN

CITY           SKY/WX    TMP DP  RH WIND       PRES   REMARKS
ANTIGO         CLOUDY    21  20  98 E7        30.10F WCI  12
SHAWANO        CLOUDY    23  20  87 NE6       30.16R WCI  16
OCONTO         CLOUDY    21  18  88 N3        30.16F
STURGEON BAY   CLOUDY    28  25  88 E6        30.16F WCI  22
GREEN BAY      CLOUDY    27  22  81 N8        30.14F WCI  19
MANITOWOC      CLOUDY    31  28  89 E12       30.14F WCI  22
APPLETON       CLOUDY    27  21  80 NE7       30.11F WCI  19
CLINTONVILLE   NOT AVBL
OSHKOSH        CLOUDY    30  27  88 E8        30.11S FOG     WCI  22
$$

WIZ032>034-041-042-053>061-171500-
SOUTHWEST WISCONSIN

CITY           SKY/WX    TMP DP  RH WIND       PRES   REMARKS
LA CROSSE      CLOUDY    29  26  89 SE6       30.10S WCI  23
SPARTA         CLOUDY    26  26  96 E3        30.11S FOG
VIROQUA        CLOUDY    28  28 100 CALM      30.05S VSB 1
BOSCOBEL       CLOUDY    32  29  88 VRB6      30.09R FOG     WCI  26
PRAIRIE DU CHI CLOUDY    31  28  86 E5        30.08R WCI  27
PLATTEVILLE    CLOUDY    32  32 100 E7        30.05S WCI  26
$$

WIZ056-057-062-063-064-067-068-171500-
SOUTH CENTRAL WISCONSIN

CITY           SKY/WX    TMP DP  RH WIND       PRES   REMARKS
REEDSBURG      CLOUDY    27  27 100 NE6       30.09R FOG     WCI  20
BARABOO/DELLS  CLOUDY    27  26  95 NE5       30.09R FOG     WCI  22
LONE ROCK      CLOUDY    32  30  92 E9        30.09R FOG     WCI  24
MINERAL POINT  CLOUDY    32  32 100 E7        30.04S FOG     WCI  26
MADISON        CLOUDY    31  28  89 E6        30.09R WCI  25
MIDDLETON      CLOUDY    32  30  92 E8        30.08S WCI  25
WATERTOWN      CLOUDY    32  32 100 E8        30.08F FOG     WCI  25
MONROE         CLOUDY    32  30  93 NE10G17   30.05S FOG     WCI  24
JANESVILLE     CLOUDY    34  34 100 E8        30.07S FOG     WCI  27
$$

WIZ051-052-058>065-066-070>072-171500-
SOUTHEAST WISCONSIN

CITY           SKY/WX    TMP DP  RH WIND       PRES   REMARKS
MILWAUKEE      CLOUDY    34  31  88 E10       30.10R FOG     WCI  26
WAUKESHA       CLOUDY    30  28  93 E9        30.10R FOG     WCI  22
MILWAUKEE/TIMM CLOUDY    32  28  86 E7        30.11R FOG     WCI  26
RACINE         CLOUDY    34  31  88 NE10      30.11R FOG     WCI  26
BURLINGTON     CLOUDY    50  50 100 E8        30.08F FOG
KENOSHA        CLOUDY    34  30  85 E12       30.09R FOG     WCI  25
FOND DU LAC    CLOUDY    31  26  82 E8        30.11S WCI  23
SHEBOYGAN      CLOUDY    30  29  96 E7        30.12F WCI  23
WEST BEND      CLOUDY    30  30 100 E8        30.10R WCI  23
JUNEAU         CLOUDY    30  28  93 E9        30.10R FOG     WCI  22
$$

LSZ147-162-171500-
LAKE SUPERIOR

STATION/POSITION TIME  TEMP    WIND        PRES    WAVE
                       AIR SEA DIR/SP/G            HT/PER
                 (UTC) (F)     (DEG/KT/KT) (MB)    (FT/S)
DEVILS ISLAND    1400   26     220/  8/ 12 1020.8F
SAXON HARBOR     1340   25                 1019.6F
$$

LMZ867-665-643>646-171500-
LAKE MICHIGAN

STATION/POSITION TIME  TEMP    WIND        PRES    WAVE
                       AIR SEA DIR/SP/G            HT/PER
                 (UTC) (F)     (DEG/KT/KT) (MB)    (FT/S)
NORTHPORT PIER   1340   29     110/ 13/ 18 1021.7F
KEWAUNEE LAKESHO 1354   31      90/  8/ 10 1020.0F
SHEBOYGAN LAKESH 1400   31      90/ 13/ 15 1020.9F
PORT WASHINGTON  1340   33      90/ 11/ 14 1021.0S
MILWAUKEE LAKESH 1400   33      70/  9/ 11   N/A
KENOSHA   LAKESH 1400   34      60/ 11/ 13 1019.3
$$

TC  - TEMPERATURE IN CELSIUS
VSB - VISIBILITY IN STATUTE MILES
WCI - WIND CHILL INDEX
HX  - HEAT INDEX





USA.gov is the U.S. government's official web portal to all federal, state and local government web resources and services.